CTV877 WAMM-WAHI

Flight info

Callsign CTV877
Flight time 3h 5m
Altitude 36000
Route GOTSA W15 BPN W18 DUNIA DCT FARIZ DCT PURWO W17N SO
Aircraft A320/M-SDE3FGHIRWY/LB1

Departure

Time 2026-04-21 08:40
Airport Sam Ratulangi International Airport (WAMM)

Arrival

Time 2026-04-21 11:45
Airport Yogyakarta International Airport (WAHI)
Time Latitude Longitude Altitude Speed Heading
2026-04-21 08:28 1.54194 124.92339 336 ft 0 kts 272°
2026-04-21 08:32 1.54194 124.92344 333 ft 2 kts 271°
2026-04-21 08:32 1.54194 124.92361 336 ft 2 kts 271°
2026-04-21 08:32 1.54194 124.92377 335 ft 2 kts 268°
2026-04-21 08:32 1.54195 124.92394 336 ft 2 kts 260°
2026-04-21 08:33 1.54199 124.92410 336 ft 2 kts 222°
2026-04-21 08:33 1.54211 124.92415 331 ft 1 kts 181°
2026-04-21 08:33 1.54214 124.92415 331 ft 0 kts 182°
2026-04-21 08:36 1.54211 124.92415 331 ft 3 kts 182°
2026-04-21 08:36 1.54187 124.92414 332 ft 4 kts 182°
2026-04-21 08:36 1.54168 124.92413 335 ft 3 kts 182°
2026-04-21 08:37 1.54130 124.92414 334 ft 8 kts 179°
2026-04-21 08:37 1.54063 124.92410 336 ft 12 kts 186°
2026-04-21 08:37 1.53966 124.92425 335 ft 16 kts 165°
2026-04-21 08:37 1.53847 124.92426 336 ft 17 kts 177°
2026-04-21 08:38 1.53782 124.92429 335 ft 6 kts 177°
2026-04-21 08:38 1.53756 124.92448 333 ft 4 kts 126°
2026-04-21 08:38 1.53744 124.92483 336 ft 9 kts 99°
2026-04-21 08:38 1.53745 124.92561 336 ft 7 kts 89°
2026-04-21 08:39 1.53750 124.92589 336 ft 1 kts 44°
2026-04-21 08:39 1.53762 124.92592 333 ft 3 kts
2026-04-21 08:39 1.53769 124.92592 335 ft 0 kts
2026-04-21 08:40 1.53845 124.92596 337 ft 42 kts
2026-04-21 08:40 1.54387 124.92612 334 ft 110 kts
2026-04-21 08:40 1.55343 124.92646 345 ft 162 kts
2026-04-21 08:40 1.56486 124.92705 903 ft 164 kts
2026-04-21 08:41 1.57636 124.92687 1665 ft 169 kts 351°
2026-04-21 08:41 1.58799 124.92367 2200 ft 182 kts 348°
2026-04-21 08:41 1.60097 124.92030 2399 ft 203 kts 349°
2026-04-21 08:41 1.61536 124.91663 2545 ft 226 kts 349°
2026-04-21 08:42 1.63149 124.91255 2857 ft 251 kts 348°
2026-04-21 08:42 1.64902 124.90806 3383 ft 266 kts 348°
2026-04-21 08:42 1.66706 124.90305 4141 ft 272 kts 340°
2026-04-21 08:42 1.68275 124.89219 4927 ft 281 kts 314°
2026-04-21 08:43 1.69566 124.87743 5739 ft 283 kts 313°
2026-04-21 08:43 1.70856 124.86247 6505 ft 285 kts 313°
2026-04-21 08:43 1.72161 124.84737 7214 ft 289 kts 312°
2026-04-21 08:43 1.73484 124.83212 7946 ft 292 kts 312°
2026-04-21 08:44 1.74827 124.81673 8669 ft 295 kts 312°
2026-04-21 08:44 1.76182 124.80124 9405 ft 298 kts 311°
2026-04-21 08:44 1.77550 124.78560 10093 ft 301 kts 311°
2026-04-21 08:44 1.78967 124.76944 10377 ft 320 kts 311°
2026-04-21 08:45 1.80346 124.75106 10501 ft 343 kts 301°
2026-04-21 08:45 1.81365 124.72880 10713 ft 360 kts 288°
2026-04-21 08:45 1.81880 124.70413 11196 ft 366 kts 275°
2026-04-21 08:45 1.81890 124.67888 11746 ft 370 kts 267°
2026-04-21 08:46 1.81777 124.65309 12337 ft 373 kts 267°
2026-04-21 08:46 1.81663 124.62707 12913 ft 377 kts 267°
2026-04-21 08:46 1.81546 124.60048 13492 ft 380 kts 267°
2026-04-21 08:46 1.81442 124.57667 13958 ft 383 kts 267°
2026-04-21 08:47 1.81331 124.55172 14417 ft 386 kts 267°
2026-04-21 08:47 1.81214 124.52477 14926 ft 389 kts 267°
2026-04-21 08:47 1.81096 124.49767 15422 ft 391 kts 267°
2026-04-21 08:47 1.80975 124.47043 15914 ft 394 kts 267°
2026-04-21 08:48 1.80852 124.44303 16400 ft 396 kts 267°
2026-04-21 08:48 1.80727 124.41537 16879 ft 399 kts 267°
2026-04-21 08:48 1.80601 124.38764 17343 ft 402 kts 267°
2026-04-21 08:48 1.80473 124.35971 17803 ft 404 kts 267°
2026-04-21 08:49 1.80343 124.33153 18230 ft 407 kts 267°
2026-04-21 08:49 1.80215 124.30316 18597 ft 410 kts 267°
2026-04-21 08:49 1.80053 124.27458 18935 ft 413 kts 262°
2026-04-21 08:49 1.79422 124.24654 19267 ft 415 kts 250°
2026-04-21 08:50 1.78192 124.22044 19615 ft 417 kts 237°
2026-04-21 08:50 1.76402 124.19750 19953 ft 419 kts 224°
2026-04-21 08:50 1.74153 124.17895 20289 ft 421 kts 211°
2026-04-21 08:50 1.71626 124.16425 20627 ft 423 kts 208°
2026-04-21 08:51 1.69052 124.14965 20976 ft 426 kts 208°
2026-04-21 08:51 1.66464 124.13497 21314 ft 429 kts 208°
2026-04-21 08:51 1.63865 124.12017 21651 ft 431 kts 208°
2026-04-21 08:51 1.61246 124.10526 21988 ft 434 kts 208°
2026-04-21 08:52 1.58611 124.09027 22324 ft 437 kts 208°
2026-04-21 08:52 1.55963 124.07522 22672 ft 439 kts 208°
2026-04-21 08:52 1.53297 124.06008 22990 ft 442 kts 208°
2026-04-21 08:52 1.50621 124.04488 23312 ft 444 kts 208°
2026-04-21 08:53 1.47917 124.02950 23595 ft 447 kts 208°
2026-04-21 08:53 1.45216 124.01414 23867 ft 449 kts 208°
2026-04-21 08:53 1.42492 123.99867 24143 ft 451 kts 208°
2026-04-21 08:53 1.39759 123.98316 24413 ft 453 kts 208°
2026-04-21 08:54 1.37016 123.96761 24688 ft 454 kts 208°
2026-04-21 08:54 1.34262 123.95195 24952 ft 456 kts 208°
2026-04-21 08:54 1.31501 123.93619 25218 ft 458 kts 208°
2026-04-21 08:54 1.28772 123.92064 25478 ft 459 kts 208°
2026-04-21 08:55 1.25962 123.90445 25744 ft 461 kts 211°
2026-04-21 08:55 1.23400 123.88498 25996 ft 464 kts 222°
2026-04-21 08:55 1.21233 123.86107 26259 ft 467 kts 233°
2026-04-21 08:55 1.19550 123.83385 26510 ft 469 kts 244°
2026-04-21 08:56 1.18361 123.80326 26756 ft 472 kts 255°
2026-04-21 08:56 1.17599 123.77139 26995 ft 473 kts 257°
2026-04-21 08:56 1.16858 123.73922 27242 ft 475 kts 257°
2026-04-21 08:56 1.16116 123.70706 27485 ft 477 kts 257°
2026-04-21 08:57 1.15363 123.67473 27711 ft 478 kts 257°
2026-04-21 08:57 1.14604 123.64224 27947 ft 480 kts 257°
2026-04-21 08:57 1.13787 123.60996 28175 ft 481 kts 252°
2026-04-21 08:57 1.12541 123.57879 28390 ft 482 kts 243°
2026-04-21 08:58 1.10833 123.55001 28614 ft 483 kts 234°
2026-04-21 08:58 1.08768 123.52335 28823 ft 484 kts 231°
2026-04-21 08:58 1.06677 123.49701 29039 ft 486 kts 231°
2026-04-21 08:58 1.04569 123.47050 29251 ft 487 kts 231°
2026-04-21 08:59 1.02462 123.44390 29552 ft 487 kts 231°
2026-04-21 08:59 1.00368 123.41741 29890 ft 486 kts 231°
2026-04-21 08:59 0.98280 123.39098 30165 ft 485 kts 231°
2026-04-21 08:59 0.96211 123.36436 30427 ft 484 kts 234°
2026-04-21 09:00 0.94474 123.33556 30699 ft 484 kts 243°
2026-04-21 09:00 0.93582 123.31521 30862 ft 484 kts 250°
2026-04-21 09:00 0.92379 123.27199 31208 ft 483 kts 257°
2026-04-21 09:00 0.91613 123.23935 31476 ft 482 kts 257°
2026-04-21 09:01 0.90839 123.20672 31768 ft 482 kts 256°
2026-04-21 09:01 0.90064 123.17425 32031 ft 481 kts 256°
2026-04-21 09:01 0.89286 123.14173 32310 ft 481 kts 256°
2026-04-21 09:01 0.88511 123.10924 32586 ft 480 kts 257°
2026-04-21 09:02 0.87742 123.07682 32864 ft 479 kts 257°
2026-04-21 09:02 0.86975 123.04440 33149 ft 479 kts 257°
2026-04-21 09:02 0.86207 123.01205 33432 ft 478 kts 257°
2026-04-21 09:03 0.84670 122.94756 33990 ft 477 kts 257°
2026-04-21 09:03 0.83902 122.91539 34245 ft 476 kts 257°
2026-04-21 09:03 0.83137 122.88321 34483 ft 475 kts 257°
2026-04-21 09:03 0.82373 122.85111 34712 ft 475 kts 257°
2026-04-21 09:04 0.81611 122.81906 34933 ft 475 kts 257°
2026-04-21 09:04 0.80846 122.78696 35144 ft 474 kts 257°
2026-04-21 09:04 0.80081 122.75489 35373 ft 474 kts 257°
2026-04-21 09:04 0.79319 122.72286 35597 ft 473 kts 257°
2026-04-21 09:05 0.78564 122.69098 35787 ft 473 kts 257°
2026-04-21 09:05 0.77806 122.65897 35843 ft 473 kts 257°
2026-04-21 09:05 0.76544 122.60582 35840 ft 472 kts 257°
2026-04-21 09:06 0.74765 122.53120 35842 ft 471 kts 257°
2026-04-21 09:06 0.73243 122.46746 35841 ft 471 kts 257°
2026-04-21 09:07 0.71735 122.40423 35842 ft 471 kts 257°
2026-04-21 09:07 0.70473 122.35090 35844 ft 471 kts 257°
2026-04-21 09:08 0.68966 122.28722 35848 ft 471 kts 257°
2026-04-21 09:08 0.67208 122.21320 35852 ft 471 kts 257°
2026-04-21 09:09 0.65685 122.14962 35854 ft 471 kts 257°
2026-04-21 09:09 0.64411 122.09623 35857 ft 471 kts 257°
2026-04-21 09:10 0.62892 122.03258 35861 ft 471 kts 257°
2026-04-21 09:10 0.61372 121.96894 35861 ft 471 kts 257°
2026-04-21 09:11 0.59858 121.90534 35862 ft 470 kts 257°
2026-04-21 09:11 0.58349 121.84179 35864 ft 470 kts 257°
2026-04-21 09:12 0.56852 121.77833 35856 ft 469 kts 257°
2026-04-21 09:12 0.55339 121.71481 35857 ft 469 kts 256°
2026-04-21 09:13 0.53836 121.65187 35857 ft 469 kts 256°
2026-04-21 09:13 0.52324 121.58845 35857 ft 469 kts 256°
2026-04-21 09:14 0.50810 121.52499 35853 ft 469 kts 256°
2026-04-21 09:14 0.49303 121.46166 35855 ft 469 kts 256°
2026-04-21 09:15 0.47794 121.39815 35854 ft 469 kts 256°
2026-04-21 09:15 0.46287 121.33469 35852 ft 469 kts 256°
2026-04-21 09:16 0.44777 121.27136 35846 ft 469 kts 256°
2026-04-21 09:16 0.43257 121.20805 35846 ft 468 kts 256°
2026-04-21 09:17 0.41749 121.14469 35844 ft 468 kts 256°
2026-04-21 09:17 0.40244 121.08134 35845 ft 468 kts 256°
2026-04-21 09:18 0.38734 121.01808 35848 ft 468 kts 256°
2026-04-21 09:18 0.37226 120.95484 35847 ft 468 kts 256°
2026-04-21 09:19 0.35728 120.89154 35840 ft 468 kts 256°
2026-04-21 09:19 0.34223 120.82830 35837 ft 468 kts 256°
2026-04-21 09:20 0.32709 120.76500 35838 ft 468 kts 256°
2026-04-21 09:20 0.31202 120.70170 35834 ft 468 kts 256°
2026-04-21 09:21 0.29696 120.63849 35839 ft 468 kts 256°
2026-04-21 09:21 0.28187 120.57516 35841 ft 468 kts 256°
2026-04-21 09:22 0.26683 120.51231 35844 ft 468 kts 256°
2026-04-21 09:22 0.25163 120.44861 35846 ft 468 kts 256°
2026-04-21 09:23 0.23660 120.38539 35849 ft 468 kts 256°
2026-04-21 09:23 0.22156 120.32204 35848 ft 468 kts 256°
2026-04-21 09:24 0.20646 120.25886 35853 ft 468 kts 256°
2026-04-21 09:24 0.19137 120.19561 35852 ft 468 kts 256°
2026-04-21 09:25 0.17627 120.13237 35852 ft 468 kts 256°
2026-04-21 09:25 0.16120 120.06903 35849 ft 468 kts 256°
2026-04-21 09:26 0.14615 120.00573 35849 ft 468 kts 256°
2026-04-21 09:26 0.13116 119.94298 35851 ft 468 kts 256°
2026-04-21 09:27 0.11608 119.87975 35851 ft 468 kts 256°
2026-04-21 09:27 0.10101 119.81661 35852 ft 467 kts 256°
2026-04-21 09:28 0.08604 119.75348 35846 ft 466 kts 256°
2026-04-21 09:28 0.07103 119.69051 35847 ft 466 kts 256°
2026-04-21 09:29 0.05592 119.62750 35840 ft 466 kts 256°
2026-04-21 09:29 0.04092 119.56458 35838 ft 466 kts 256°
2026-04-21 09:30 0.02340 119.50240 35834 ft 465 kts 246°
2026-04-21 09:30 -0.00497 119.44433 35828 ft 465 kts 243°
2026-04-21 09:31 -0.03375 119.38646 35822 ft 465 kts 243°
2026-04-21 09:31 -0.06248 119.32847 35823 ft 465 kts 243°
2026-04-21 09:32 -0.09119 119.27042 35828 ft 466 kts 243°
2026-04-21 09:32 -0.11997 119.21229 35828 ft 466 kts 243°
2026-04-21 09:33 -0.14883 119.15415 35827 ft 467 kts 243°
2026-04-21 09:33 -0.17746 119.09650 35825 ft 467 kts 243°
2026-04-21 09:34 -0.20628 119.03831 35823 ft 467 kts 243°
2026-04-21 09:34 -0.23508 118.98007 35825 ft 467 kts 243°
2026-04-21 09:35 -0.26391 118.92189 35824 ft 468 kts 243°
2026-04-21 09:35 -0.29279 118.86364 35829 ft 468 kts 243°
2026-04-21 09:36 -0.32173 118.80548 35828 ft 468 kts 243°
2026-04-21 09:36 -0.35058 118.74728 35826 ft 467 kts 243°
2026-04-21 09:37 -0.37936 118.68904 35829 ft 467 kts 243°
2026-04-21 09:37 -0.40816 118.63074 35826 ft 467 kts 243°
2026-04-21 09:38 -0.43700 118.57262 35824 ft 467 kts 243°
2026-04-21 09:38 -0.46595 118.51447 35820 ft 467 kts 243°
2026-04-21 09:39 -0.49480 118.45625 35818 ft 468 kts 243°
2026-04-21 09:39 -0.52371 118.39797 35814 ft 468 kts 243°
2026-04-21 09:40 -0.55267 118.33957 35817 ft 469 kts 243°
2026-04-21 09:40 -0.58159 118.28114 35815 ft 469 kts 243°
2026-04-21 09:41 -0.61059 118.22267 35815 ft 470 kts 243°
2026-04-21 09:41 -0.63954 118.16417 35816 ft 470 kts 243°
2026-04-21 09:42 -0.66859 118.10561 35815 ft 471 kts 243°
2026-04-21 09:42 -0.69764 118.04695 35817 ft 471 kts 243°
2026-04-21 09:43 -0.72672 117.98821 35814 ft 472 kts 243°
2026-04-21 09:43 -0.75592 117.92939 35814 ft 473 kts 243°
2026-04-21 09:44 -0.78501 117.87081 35820 ft 473 kts 243°
2026-04-21 09:44 -0.81423 117.81176 35822 ft 474 kts 243°
2026-04-21 09:45 -0.84346 117.75269 35825 ft 474 kts 243°
2026-04-21 09:45 -0.87274 117.69348 35825 ft 475 kts 243°
2026-04-21 09:46 -0.90203 117.63437 35835 ft 475 kts 243°
2026-04-21 09:46 -0.93134 117.57526 35833 ft 475 kts 243°
2026-04-21 09:47 -0.96058 117.51616 35830 ft 474 kts 243°
2026-04-21 09:47 -0.98986 117.45708 35832 ft 474 kts 243°
2026-04-21 09:48 -1.01922 117.39797 35827 ft 474 kts 244°
2026-04-21 09:48 -1.04841 117.33899 35829 ft 474 kts 244°
2026-04-21 09:49 -1.07765 117.27999 35826 ft 473 kts 244°
2026-04-21 09:49 -1.10188 117.23105 35824 ft 473 kts 244°
2026-04-21 09:50 -1.12629 117.18167 35822 ft 473 kts 244°
2026-04-21 09:50 -1.16025 117.11313 35813 ft 473 kts 244°
2026-04-21 09:51 -1.18946 117.05424 35803 ft 473 kts 244°
2026-04-21 09:51 -1.21862 116.99530 35794 ft 473 kts 244°
2026-04-21 09:52 -1.25063 116.93809 35794 ft 472 kts 233°
2026-04-21 09:52 -1.29528 116.88995 35793 ft 472 kts 225°
2026-04-21 09:53 -1.34139 116.84326 35792 ft 472 kts 225°
2026-04-21 09:53 -1.38733 116.79645 35803 ft 472 kts 225°
2026-04-21 09:54 -1.43335 116.74954 35807 ft 472 kts 225°
2026-04-21 09:54 -1.47937 116.70279 35817 ft 472 kts 225°
2026-04-21 09:55 -1.52543 116.65594 35825 ft 472 kts 225°
2026-04-21 09:55 -1.57127 116.60926 35823 ft 471 kts 225°
2026-04-21 09:56 -1.61716 116.56252 35824 ft 471 kts 225°
2026-04-21 09:56 -1.66304 116.51582 35819 ft 471 kts 225°
2026-04-21 09:57 -1.70894 116.46910 35821 ft 470 kts 225°
2026-04-21 09:57 -1.75481 116.42242 35820 ft 470 kts 225°
2026-04-21 09:58 -1.80070 116.37572 35817 ft 471 kts 225°
2026-04-21 09:58 -1.84659 116.32905 35816 ft 471 kts 225°
2026-04-21 09:59 -1.89246 116.28234 35816 ft 471 kts 225°
2026-04-21 09:59 -1.93845 116.23546 35818 ft 471 kts 225°
2026-04-21 10:00 -1.98437 116.18868 35823 ft 471 kts 225°
2026-04-21 10:00 -2.03029 116.14200 35823 ft 471 kts 225°
2026-04-21 10:01 -2.07612 116.09530 35822 ft 470 kts 225°
2026-04-21 10:01 -2.12184 116.04865 35821 ft 470 kts 225°
2026-04-21 10:02 -2.19077 115.97852 35825 ft 470 kts 225°
2026-04-21 10:03 -2.23638 115.93206 35827 ft 471 kts 225°
2026-04-21 10:03 -2.28228 115.88528 35823 ft 470 kts 225°
2026-04-21 10:04 -2.32810 115.83857 35822 ft 470 kts 225°
2026-04-21 10:04 -2.37423 115.79231 35816 ft 470 kts 224°
2026-04-21 10:05 -2.42068 115.74623 35818 ft 470 kts 224°
2026-04-21 10:05 -2.46694 115.70020 35818 ft 470 kts 224°
2026-04-21 10:06 -2.51321 115.65404 35817 ft 469 kts 224°
2026-04-21 10:06 -2.55939 115.60798 35815 ft 469 kts 224°
2026-04-21 10:07 -2.60554 115.56183 35811 ft 469 kts 225°
2026-04-21 10:07 -2.65167 115.51579 35807 ft 469 kts 224°
2026-04-21 10:08 -2.69795 115.46968 35802 ft 469 kts 224°
2026-04-21 10:08 -2.74408 115.42360 35799 ft 469 kts 224°
2026-04-21 10:09 -2.79025 115.37748 35795 ft 469 kts 224°
2026-04-21 10:09 -2.83618 115.33176 35792 ft 469 kts 224°
2026-04-21 10:10 -2.88260 115.28543 35785 ft 468 kts 224°
2026-04-21 10:10 -2.92842 115.23964 35780 ft 468 kts 224°
2026-04-21 10:11 -2.97454 115.19358 35776 ft 468 kts 224°
2026-04-21 10:11 -3.02067 115.14757 35776 ft 468 kts 224°
2026-04-21 10:12 -3.06681 115.10150 35770 ft 468 kts 224°
2026-04-21 10:12 -3.11290 115.05541 35767 ft 468 kts 224°
2026-04-21 10:13 -3.15902 115.00922 35764 ft 469 kts 224°
2026-04-21 10:13 -3.20514 114.96311 35769 ft 469 kts 224°
2026-04-21 10:14 -3.25129 114.91701 35771 ft 469 kts 224°
2026-04-21 10:14 -3.29749 114.87084 35772 ft 469 kts 224°
2026-04-21 10:15 -3.34367 114.82473 35773 ft 469 kts 224°
2026-04-21 10:15 -3.38991 114.77853 35771 ft 469 kts 224°
2026-04-21 10:16 -3.43187 114.72882 35767 ft 470 kts 239°
2026-04-21 10:16 -3.45753 114.66882 35766 ft 470 kts 252°
2026-04-21 10:17 -3.47809 114.60657 35764 ft 471 kts 251°
2026-04-21 10:17 -3.49885 114.54428 35769 ft 472 kts 251°
2026-04-21 10:18 -3.51962 114.48196 35778 ft 472 kts 251°
2026-04-21 10:18 -3.54029 114.41966 35787 ft 472 kts 251°
2026-04-21 10:19 -3.56093 114.35729 35795 ft 472 kts 251°
2026-04-21 10:19 -3.58155 114.29505 35799 ft 471 kts 251°
2026-04-21 10:20 -3.60223 114.23265 35802 ft 471 kts 251°
2026-04-21 10:20 -3.62284 114.17036 35805 ft 471 kts 251°
2026-04-21 10:21 -3.64334 114.10817 35806 ft 471 kts 251°
2026-04-21 10:21 -3.66388 114.04591 35807 ft 470 kts 251°
2026-04-21 10:22 -3.68445 113.98373 35810 ft 470 kts 251°
2026-04-21 10:22 -3.70506 113.92160 35810 ft 470 kts 251°
2026-04-21 10:23 -3.72559 113.85942 35813 ft 470 kts 251°
2026-04-21 10:23 -3.74597 113.79774 35815 ft 470 kts 251°
2026-04-21 10:24 -3.76655 113.73567 35811 ft 470 kts 251°
2026-04-21 10:24 -3.78743 113.67325 35811 ft 470 kts 251°
2026-04-21 10:25 -3.80825 113.61174 35811 ft 470 kts 251°
2026-04-21 10:25 -3.82916 113.54972 35810 ft 470 kts 251°
2026-04-21 10:26 -3.85004 113.48776 35812 ft 470 kts 251°
2026-04-21 10:26 -3.87100 113.42582 35813 ft 470 kts 251°
2026-04-21 10:27 -3.89192 113.36380 35810 ft 470 kts 251°
2026-04-21 10:27 -3.91279 113.30173 35810 ft 470 kts 251°
2026-04-21 10:28 -3.93364 113.23963 35812 ft 470 kts 251°
2026-04-21 10:28 -3.95480 113.17760 35817 ft 470 kts 248°
2026-04-21 10:29 -3.98793 113.12151 35817 ft 469 kts 229°
2026-04-21 10:29 -4.02568 113.08248 35814 ft 469 kts 224°
2026-04-21 10:30 -4.07179 113.03621 35815 ft 470 kts 224°
2026-04-21 10:30 -4.12544 112.98228 35818 ft 470 kts 225°
2026-04-21 10:31 -4.16410 112.94340 35820 ft 470 kts 225°
2026-04-21 10:31 -4.21016 112.89702 35822 ft 470 kts 225°
2026-04-21 10:32 -4.25628 112.85053 35825 ft 470 kts 225°
2026-04-21 10:32 -4.30243 112.80408 35824 ft 470 kts 224°
2026-04-21 10:33 -4.34865 112.75767 35830 ft 471 kts 225°
2026-04-21 10:33 -4.39491 112.71111 35833 ft 471 kts 225°
2026-04-21 10:34 -4.44086 112.66489 35832 ft 471 kts 225°
2026-04-21 10:34 -4.48739 112.61801 35842 ft 471 kts 225°
2026-04-21 10:35 -4.53363 112.57146 35845 ft 471 kts 225°
2026-04-21 10:35 -4.57963 112.52522 35841 ft 471 kts 225°
2026-04-21 10:36 -4.62589 112.47866 35840 ft 471 kts 225°
2026-04-21 10:36 -4.67211 112.43208 35837 ft 471 kts 225°
2026-04-21 10:37 -4.71828 112.38546 35832 ft 471 kts 225°
2026-04-21 10:37 -4.76454 112.33881 35827 ft 471 kts 225°
2026-04-21 10:38 -4.81075 112.29219 35831 ft 471 kts 225°
2026-04-21 10:38 -4.85692 112.24571 35828 ft 471 kts 225°
2026-04-21 10:39 -4.90317 112.19910 35829 ft 471 kts 225°
2026-04-21 10:39 -4.94935 112.15241 35827 ft 471 kts 225°
2026-04-21 10:40 -4.99550 112.10574 35829 ft 472 kts 225°
2026-04-21 10:40 -5.04189 112.05904 35830 ft 472 kts 225°
2026-04-21 10:41 -5.08790 112.01264 35835 ft 472 kts 225°
2026-04-21 10:41 -5.13419 111.96593 35834 ft 472 kts 225°
2026-04-21 10:42 -5.18056 111.91915 35838 ft 472 kts 225°
2026-04-21 10:42 -5.22683 111.87233 35843 ft 472 kts 225°
2026-04-21 10:43 -5.27306 111.82558 35843 ft 473 kts 225°
2026-04-21 10:43 -5.31958 111.77866 35846 ft 473 kts 225°
2026-04-21 10:44 -5.36593 111.73184 35847 ft 473 kts 225°
2026-04-21 10:44 -5.41229 111.68497 35847 ft 473 kts 225°
2026-04-21 10:45 -5.45861 111.63817 35849 ft 473 kts 225°
2026-04-21 10:45 -5.50501 111.59127 35849 ft 473 kts 225°
2026-04-21 10:46 -5.55138 111.54439 35850 ft 473 kts 225°
2026-04-21 10:46 -5.59779 111.49744 35846 ft 473 kts 225°
2026-04-21 10:47 -5.64420 111.45054 35849 ft 473 kts 225°
2026-04-21 10:47 -5.69053 111.40356 35850 ft 473 kts 225°
2026-04-21 10:48 -5.73691 111.35663 35844 ft 473 kts 225°
2026-04-21 10:48 -5.78302 111.30993 35847 ft 473 kts 225°
2026-04-21 10:49 -5.82934 111.26297 35849 ft 473 kts 225°
2026-04-21 10:49 -5.88030 111.22085 35847 ft 472 kts 210°
2026-04-21 10:50 -5.94032 111.19543 35846 ft 472 kts 199°
2026-04-21 10:50 -6.00231 111.17379 35842 ft 472 kts 199°
2026-04-21 10:51 -6.06467 111.15182 35838 ft 472 kts 199°
2026-04-21 10:51 -6.12628 111.13014 35835 ft 472 kts 199°
2026-04-21 10:52 -6.18832 111.10828 35834 ft 472 kts 199°
2026-04-21 10:52 -6.25037 111.08643 35832 ft 472 kts 199°
2026-04-21 10:53 -6.31245 111.06454 35828 ft 472 kts 199°
2026-04-21 10:53 -6.37450 111.04261 35826 ft 473 kts 199°
2026-04-21 10:54 -6.43642 111.02077 35825 ft 473 kts 199°
2026-04-21 10:54 -6.49860 110.99885 35821 ft 473 kts 199°
2026-04-21 10:55 -6.56069 110.97690 35820 ft 473 kts 199°
2026-04-21 10:55 -6.62281 110.95497 35816 ft 473 kts 199°
2026-04-21 10:56 -6.68489 110.93311 35814 ft 473 kts 199°
2026-04-21 10:56 -6.74697 110.91119 35813 ft 473 kts 199°
2026-04-21 10:57 -6.80920 110.88923 35809 ft 473 kts 199°
2026-04-21 10:57 -6.87098 110.86744 35805 ft 474 kts 200°
2026-04-21 10:58 -6.93321 110.84553 35804 ft 474 kts 200°
2026-04-21 10:58 -6.99539 110.82351 35806 ft 474 kts 200°
2026-04-21 10:59 -7.05785 110.80140 34747 ft 481 kts 200°
2026-04-21 10:59 -7.08973 110.79012 33738 ft 490 kts 200°
2026-04-21 10:59 -7.12206 110.77867 32722 ft 494 kts 200°
2026-04-21 10:59 -7.15455 110.76716 31791 ft 497 kts 200°
2026-04-21 11:00 -7.18778 110.75702 30888 ft 499 kts 193°
2026-04-21 11:00 -7.22221 110.75202 29994 ft 502 kts 184°
2026-04-21 11:00 -7.25719 110.75122 29062 ft 501 kts 181°
2026-04-21 11:00 -7.29178 110.75072 27914 ft 493 kts 181°
2026-04-21 11:01 -7.32578 110.75015 26698 ft 485 kts 181°
2026-04-21 11:01 -7.35875 110.74953 26077 ft 465 kts 181°
2026-04-21 11:01 -7.39056 110.74891 25398 ft 448 kts 181°
2026-04-21 11:02 -7.45097 110.74765 24124 ft 419 kts 184°
2026-04-21 11:02 -7.47938 110.74336 23522 ft 410 kts 195°
2026-04-21 11:02 -7.50619 110.73404 22862 ft 408 kts 205°
2026-04-21 11:02 -7.53126 110.71966 22505 ft 416 kts 216°
2026-04-21 11:03 -7.55367 110.70086 22259 ft 423 kts 226°
2026-04-21 11:03 -7.55991 110.69421 22180 ft 423 kts 229°
2026-04-21 11:04 -7.56570 110.68751 22084 ft 424 kts 231°
2026-04-21 11:04 -7.58492 110.66491 21820 ft 424 kts 230°
2026-04-21 11:04 -7.60421 110.64247 21601 ft 423 kts 230°
2026-04-21 11:05 -7.62352 110.62021 21349 ft 422 kts 229°
2026-04-21 11:05 -7.64284 110.59803 21271 ft 420 kts 229°
2026-04-21 11:05 -7.66214 110.57584 21272 ft 421 kts 229°
2026-04-21 11:05 -7.68141 110.55361 21273 ft 421 kts 229°
2026-04-21 11:06 -7.70056 110.53141 21273 ft 421 kts 229°
2026-04-21 11:06 -7.71982 110.50903 21206 ft 421 kts 229°
2026-04-21 11:06 -7.73897 110.48680 21118 ft 420 kts 229°
2026-04-21 11:06 -7.75805 110.46447 21026 ft 420 kts 232°
2026-04-21 11:07 -7.77409 110.43995 20850 ft 418 kts 243°
2026-04-21 11:07 -7.78504 110.41295 20775 ft 417 kts 254°
2026-04-21 11:07 -7.79085 110.38426 20691 ft 416 kts 263°
2026-04-21 11:07 -7.79444 110.35527 20490 ft 416 kts 263°
2026-04-21 11:08 -7.79803 110.32642 20253 ft 415 kts 264°
2026-04-21 11:08 -7.79871 110.29745 20019 ft 413 kts 274°
2026-04-21 11:08 -7.79557 110.26861 19790 ft 412 kts 277°
2026-04-21 11:08 -7.79334 110.24958 19633 ft 412 kts 277°
2026-04-21 11:09 -7.78890 110.21165 19029 ft 410 kts 277°
2026-04-21 11:09 -7.78664 110.19238 18679 ft 408 kts 277°
2026-04-21 11:09 -7.78333 110.16400 18138 ft 406 kts 277°
2026-04-21 11:09 -7.77897 110.12656 17392 ft 404 kts 277°
2026-04-21 11:10 -7.77675 110.10760 17042 ft 402 kts 277°
2026-04-21 11:10 -7.77347 110.07972 16521 ft 399 kts 277°
2026-04-21 11:10 -7.77023 110.05205 16010 ft 397 kts 276°
2026-04-21 11:10 -7.77053 110.02443 15495 ft 394 kts 259°
2026-04-21 11:11 -7.77953 109.99855 14994 ft 391 kts 239°
2026-04-21 11:11 -7.79639 109.97741 14638 ft 384 kts 219°
2026-04-21 11:11 -7.81880 109.96292 14475 ft 382 kts 201°
2026-04-21 11:11 -7.84370 109.95503 14290 ft 380 kts 193°
2026-04-21 11:12 -7.86920 109.94817 14087 ft 379 kts 193°
2026-04-21 11:12 -7.89474 109.94143 13884 ft 378 kts 193°
2026-04-21 11:12 -7.92016 109.93472 13684 ft 377 kts 193°
2026-04-21 11:12 -7.94555 109.92800 13470 ft 376 kts 193°
2026-04-21 11:13 -7.97080 109.92129 13267 ft 375 kts 193°
2026-04-21 11:13 -7.99602 109.91459 13069 ft 374 kts 193°
2026-04-21 11:13 -8.02112 109.90790 12874 ft 373 kts 193°
2026-04-21 11:13 -8.04616 109.90122 12313 ft 375 kts 193°
2026-04-21 11:14 -8.07179 109.89445 11434 ft 383 kts 193°
2026-04-21 11:14 -8.09725 109.88772 11219 ft 370 kts 193°
2026-04-21 11:14 -8.12153 109.88129 11107 ft 354 kts 193°
2026-04-21 11:14 -8.14517 109.87785 10983 ft 330 kts 173°
2026-04-21 11:15 -8.16606 109.88421 10767 ft 304 kts 147°
2026-04-21 11:15 -8.18098 109.89831 10264 ft 292 kts 121°
2026-04-21 11:15 -8.18832 109.91708 9663 ft 287 kts 101°
2026-04-21 11:15 -8.19246 109.93680 8973 ft 286 kts 101°
2026-04-21 11:16 -8.19624 109.95637 8511 ft 284 kts 94°
2026-04-21 11:16 -8.19339 109.97578 8098 ft 283 kts 66°
2026-04-21 11:16 -8.18142 109.99144 7579 ft 289 kts 36°
2026-04-21 11:16 -8.16296 109.99902 7290 ft 286 kts 14°
2026-04-21 11:17 -8.14413 110.00313 7069 ft 269 kts 13°
2026-04-21 11:17 -8.12577 110.00415 6607 ft 265 kts 354°
2026-04-21 11:17 -8.10824 109.99922 6268 ft 263 kts 336°
2026-04-21 11:17 -8.09237 109.99004 5911 ft 262 kts 331°
2026-04-21 11:18 -8.07680 109.98064 5577 ft 257 kts 331°
2026-04-21 11:18 -8.06166 109.97157 5261 ft 251 kts 331°
2026-04-21 11:18 -8.04669 109.96264 4937 ft 249 kts 331°
2026-04-21 11:18 -8.03158 109.95362 4406 ft 256 kts 332°
2026-04-21 11:19 -8.01605 109.94437 3879 ft 262 kts 331°
2026-04-21 11:19 -8.00020 109.93491 3348 ft 267 kts 330°
2026-04-21 11:19 -7.98409 109.92529 2811 ft 272 kts 331°
2026-04-21 11:19 -7.96810 109.91573 2650 ft 257 kts 330°
2026-04-21 11:20 -7.95336 109.90688 2592 ft 236 kts 330°
2026-04-21 11:20 -7.93981 109.89881 2524 ft 219 kts 334°
2026-04-21 11:20 -7.92601 109.89385 2433 ft 203 kts 349°
2026-04-21 11:20 -7.91251 109.89067 2271 ft 195 kts 349°
2026-04-21 11:21 -7.89950 109.88865 2112 ft 183 kts
2026-04-21 11:21 -7.88771 109.89115 1980 ft 166 kts 28°
2026-04-21 11:21 -7.87843 109.89709 1876 ft 153 kts 46°
2026-04-21 11:21 -7.87309 109.90335 1780 ft 149 kts 58°
2026-04-21 11:22 -7.86724 109.91140 1680 ft 148 kts 57°
2026-04-21 11:22 -7.86227 109.92038 1570 ft 146 kts 75°
2026-04-21 11:22 -7.86069 109.93024 1460 ft 142 kts 94°
2026-04-21 11:22 -7.86310 109.93967 1363 ft 142 kts 109°
2026-04-21 11:23 -7.86620 109.94915 1271 ft 139 kts 111°
2026-04-21 11:23 -7.86934 109.95825 1177 ft 140 kts 112°
2026-04-21 11:23 -7.87263 109.96748 1089 ft 139 kts 111°
2026-04-21 11:23 -7.87591 109.97661 995 ft 138 kts 111°
2026-04-21 11:24 -7.87927 109.98587 911 ft 142 kts 111°
2026-04-21 11:24 -7.88269 109.99522 842 ft 142 kts 112°
2026-04-21 11:24 -7.88606 110.00445 788 ft 139 kts 111°
2026-04-21 11:24 -7.88943 110.01359 688 ft 139 kts 110°
2026-04-21 11:25 -7.89277 110.02285 477 ft 141 kts 111°
2026-04-21 11:25 -7.89609 110.03213 299 ft 141 kts 112°
2026-04-21 11:25 -7.89947 110.04134 117 ft 140 kts 112°
2026-04-21 11:25 -7.90274 110.05027 34 ft 127 kts 113°
2026-04-21 11:26 -7.90582 110.05856 158 ft 141 kts 112°
2026-04-21 11:26 -7.90953 110.06872 825 ft 161 kts 112°
2026-04-21 11:26 -7.91393 110.07914 1797 ft 163 kts 122°
2026-04-21 11:26 -7.92271 110.08704 2238 ft 184 kts 158°
2026-04-21 11:27 -7.93607 110.08680 2559 ft 207 kts 195°
2026-04-21 11:27 -7.95019 110.08179 2989 ft 220 kts 197°
2026-04-21 11:27 -7.96478 110.07640 3712 ft 225 kts 198°
2026-04-21 11:27 -7.97959 110.07093 4505 ft 229 kts 198°
2026-04-21 11:28 -8.02606 110.05398 5968 ft 237 kts 197°
2026-04-21 11:28 -8.04155 110.04836 6009 ft 236 kts 197°
2026-04-21 11:29 -8.05702 110.04273 6006 ft 235 kts 197°
2026-04-21 11:29 -8.07240 110.03715 6013 ft 235 kts 197°
2026-04-21 11:29 -8.08779 110.03160 6013 ft 235 kts 197°
2026-04-21 11:29 -8.10318 110.02609 6014 ft 235 kts 197°
2026-04-21 11:30 -8.11861 110.02055 6017 ft 236 kts 197°
2026-04-21 11:30 -8.13408 110.01499 6018 ft 236 kts 197°
2026-04-21 11:30 -8.14952 110.00943 6017 ft 236 kts 197°
2026-04-21 11:30 -8.16497 110.00388 6020 ft 235 kts 197°
2026-04-21 11:31 -8.18038 109.99833 6019 ft 235 kts 197°
2026-04-21 11:31 -8.19579 109.99280 6022 ft 235 kts 197°
2026-04-21 11:31 -8.21078 109.98626 6018 ft 237 kts 215°
2026-04-21 11:31 -8.22014 109.97280 6022 ft 241 kts 255°
2026-04-21 11:32 -8.22196 109.95590 6029 ft 244 kts 270°
2026-04-21 11:32 -8.22138 109.93880 6026 ft 245 kts 274°
2026-04-21 11:32 -8.21988 109.92166 6027 ft 244 kts 265°
2026-04-21 11:32 -8.22502 109.90573 6028 ft 240 kts 232°
2026-04-21 11:33 -8.23734 109.89499 6032 ft 235 kts 205°
2026-04-21 11:33 -8.25238 109.88871 6029 ft 232 kts 188°
2026-04-21 11:33 -8.26828 109.88873 6028 ft 228 kts 163°
2026-04-21 11:33 -8.28221 109.89568 6029 ft 224 kts 136°
2026-04-21 11:34 -8.29127 109.90810 6028 ft 221 kts 110°
2026-04-21 11:34 -8.29372 109.92332 6035 ft 222 kts 85°
2026-04-21 11:34 -8.28902 109.93814 6033 ft 225 kts 59°
2026-04-21 11:34 -8.27731 109.94982 6039 ft 260 kts 33°
2026-04-21 11:35 -8.26090 109.95905 6043 ft 275 kts 30°
2026-04-21 11:35 -8.24417 109.96812 6036 ft 277 kts 30°
2026-04-21 11:35 -8.22711 109.97730 6030 ft 278 kts 30°
2026-04-21 11:35 -8.20974 109.98653 5968 ft 279 kts 27°
2026-04-21 11:36 -8.19156 109.99262 5844 ft 281 kts 14°
2026-04-21 11:36 -8.17253 109.99670 5718 ft 280 kts 14°
2026-04-21 11:36 -8.15324 110.00091 5642 ft 273 kts 14°
2026-04-21 11:36 -8.13519 110.00350 5546 ft 262 kts
2026-04-21 11:37 -8.11718 110.00147 5423 ft 261 kts 347°
2026-04-21 11:37 -8.10027 109.99478 5299 ft 262 kts 332°
2026-04-21 11:37 -8.08458 109.98531 5173 ft 262 kts 330°
2026-04-21 11:37 -8.06929 109.97611 5053 ft 250 kts 331°
2026-04-21 11:38 -8.05462 109.96733 4938 ft 240 kts 330°
2026-04-21 11:38 -8.04032 109.95879 4931 ft 238 kts 331°
2026-04-21 11:38 -8.02609 109.95029 4930 ft 237 kts 331°
2026-04-21 11:38 -8.01219 109.94198 4747 ft 232 kts 331°
2026-04-21 11:39 -7.99816 109.93361 4352 ft 237 kts 330°
2026-04-21 11:39 -7.98382 109.92506 3957 ft 242 kts 331°
2026-04-21 11:39 -7.96915 109.91629 3515 ft 246 kts 330°
2026-04-21 11:39 -7.95451 109.90752 3087 ft 244 kts 330°
2026-04-21 11:40 -7.93996 109.89887 2647 ft 241 kts 334°
2026-04-21 11:40 -7.92442 109.89349 2319 ft 230 kts 349°
2026-04-21 11:40 -7.90944 109.89003 2201 ft 213 kts 349°
2026-04-21 11:40 -7.89557 109.88915 2073 ft 188 kts 11°
2026-04-21 11:41 -7.88397 109.89322 1945 ft 166 kts 32°
2026-04-21 11:41 -7.87552 109.90023 1818 ft 154 kts 53°
2026-04-21 11:41 -7.86925 109.90866 1713 ft 149 kts 57°
2026-04-21 11:41 -7.86362 109.91710 1602 ft 146 kts 67°
2026-04-21 11:42 -7.86077 109.92763 1498 ft 159 kts 88°
2026-04-21 11:42 -7.86187 109.93811 1390 ft 145 kts 108°
2026-04-21 11:42 -7.86523 109.94744 1351 ft 139 kts 111°
2026-04-21 11:42 -7.86861 109.95669 1355 ft 140 kts 112°
2026-04-21 11:43 -7.87195 109.96586 1356 ft 139 kts 111°
2026-04-21 11:43 -7.87526 109.97498 1324 ft 139 kts 111°
2026-04-21 11:43 -7.87866 109.98425 1213 ft 141 kts 111°
2026-04-21 11:43 -7.88205 109.99352 1057 ft 141 kts 111°
2026-04-21 11:44 -7.88539 110.00269 893 ft 139 kts 110°
2026-04-21 11:44 -7.88875 110.01181 726 ft 140 kts 110°
2026-04-21 11:44 -7.89212 110.02105 533 ft 140 kts 112°
2026-04-21 11:44 -7.89540 110.03030 327 ft 140 kts 112°
2026-04-21 11:45 -7.89882 110.03946 154 ft 139 kts 111°
2026-04-21 11:45 -7.90208 110.04845 35 ft 129 kts 111°
2026-04-21 11:45 -7.90397 110.05364 31 ft 106 kts 111°
2026-04-21 11:45 -7.90631 110.06011 33 ft 24 kts 108°
2026-04-21 11:46 -7.90664 110.06174 33 ft 24 kts 93°
2026-04-21 11:46 -7.90638 110.06334 35 ft 22 kts 74°
2026-04-21 11:46 -7.90605 110.06467 32 ft 11 kts 26°
2026-04-21 11:46 -7.90560 110.06484 33 ft 10 kts 21°
2026-04-21 11:47 -7.90516 110.06501 37 ft 4 kts 21°
2026-04-21 11:47 -7.90507 110.06504 37 ft 0 kts 21°
2026-04-21 11:47 -7.90501 110.06506 35 ft 3 kts 21°
2026-04-21 11:47 -7.90456 110.06494 36 ft 11 kts 308°
2026-04-21 11:48 -7.90416 110.06396 38 ft 17 kts 291°
2026-04-21 11:48 -7.90375 110.06290 38 ft 16 kts 291°
2026-04-21 11:48 -7.90339 110.06193 38 ft 14 kts 290°
2026-04-21 11:48 -7.90306 110.06104 38 ft 13 kts 290°
2026-04-21 11:49 -7.90276 110.06022 38 ft 12 kts 290°
2026-04-21 11:49 -7.90247 110.05947 38 ft 11 kts 291°
2026-04-21 11:49 -7.90224 110.05911 38 ft 5 kts 338°
2026-04-21 11:49 -7.90196 110.05923 37 ft 5 kts 28°
2026-04-21 11:50 -7.90161 110.05937 38 ft 5 kts 18°
2026-04-21 11:50 -7.90139 110.05946 38 ft 1 kts 20°
2026-04-21 11:50 -7.90134 110.05947 38 ft 0 kts 20°